IRS-1C Rocket - Orbit

View from above orbital plane
View from above orbital plane
View from above satellite
View from above satellite

Ground track
Ground track

The orbit data is extracted from the following two-line orbital elements,

1 23753U 95072C   13139.48305962  .00000060  00000-0  43511-4 0  3939
2 23753 098.7049 084.5345 0002643 247.2281 248.7960 14.26201478905071
Epoch (UTC): 19 May 2013 11:35:36
Eccentricity: 0.0002643
inclination: 98.7049°
perigee height: 802 km
apogee height: 806 km
right ascension of ascending node: 84.5345°
argument of perigee: 247.2281°
revolutions per day: 14.26201478
mean anomaly at epoch: 248.7960°
orbit number at epoch: 90507

The dashed part of the orbit path shows where the satellite is in the earth's shadow,  

Developed and maintained by Chris Peat, Heavens-Above GmbH. Please read the updated FAQ before sending e-mail. Imprint. DLR